Location: Nürtingen
(48.6244°N, 9.3469°E)
Time: 06:24:32
(UTC+02:00)

Tiangong 2 - Visible Passes

Search period start: 26 June 2019 00:00
Search period end: 06 July 2019 00:00
Orbit: 376 x 388 km, 42.8° (Epoch: 25 June)

Date Brightness Start Highest point End Pass type
(mag) Time Alt. Az. Time Alt. Az. Time Alt. Az.
27 Jun 3.6 04:17:15 10° SSE 04:17:57 11° SSE 04:18:40 10° SE visible
29 Jun 3.1 03:52:59 13° S 03:53:55 15° SSE 03:55:48 10° ESE visible
30 Jun 2.5 04:27:25 10° SW 04:29:57 24° S 04:32:35 10° ESE visible
01 Jul 2.7 03:29:43 19° SSE 03:29:54 19° SSE 03:32:15 10° ESE visible
02 Jul 2.2 04:04:10 16° SW 04:06:00 27° S 04:08:43 10° ESE visible
03 Jul 2.6 03:06:32 22° SSE 03:06:32 22° SSE 03:08:30 10° ESE visible
03 Jul 2.2 04:39:25 10° WSW 04:42:07 26° S 04:44:50 10° SE visible
04 Jul 2.1 03:41:08 24° SSW 03:42:01 28° S 03:44:46 10° ESE visible
05 Jul 3.2 02:43:44 16° SE 02:43:44 16° SE 02:44:37 10° ESE visible
05 Jul 2.3 04:15:54 12° WSW 04:18:07 23° SSW 04:20:42 10° SE visible
